User: anonymous
Location: Mentone
(34.5413°N, 85.5351°W)
Time: 06:26:27
(UTC-05:00)
Language:

ATLAS 5 CENTAUR R/B - Orbit

View from above orbital plane
View from above orbital plane
View from above satellite
View from above satellite

Ground track
Ground track

The orbit data is extracted from the following two-line orbital elements,

1 31702U 07027B   14257.84622056 0.00000300  00000-0  12822-3 0    05
2 31702  63.3790 272.5447 0160000 350.8490   9.1509 14.18164111    02
Epoch (UTC): 14 September 2014 20:18:33
Eccentricity: 0.0160000
inclination: 63.3790°
perigee height: 716 km
apogee height: 947 km
right ascension of ascending node: 272.5447°
argument of perigee: 350.8490°
revolutions per day: 14.18164111
mean anomaly at epoch: 9.1509°
orbit number at epoch: 0

The dashed part of the orbit path shows where the satellite is in the earth's shadow,  

DLR